Back to catalog

ONDOSAT-OWL-11

AliveAmateur RadioVLEO
NORAD 62385·PAYLOAD·🇲🇳 Mongolia

Launched Dec 21, 2024 from Vandenberg Space Force Base

Loading…

Next Passes (next 24 hours)

TLE

FreshSource: Space-Track

Epoch: Sep 14, 2026, 14:37 UTC

1 62385U 24247J   26257.60946325  .00052698  00000-0  65280-3 0  9994
2 62385  44.9969 102.8717 0006623 210.0818 149.9697 15.59315662 97374

Track ONDOSAT-OWL-11 in real time with AllMySat

Download on the App Store